CUSAT 2 & FALCON 9 R/B (39271 NORAD) Tracking and Keplerian Element Data

This shows tracking and keplerian element data for the satellite.

Feedback or suggestion? Click here.




ElementValue
Catalog39271
NameCUSAT 2 & FALCON 9 R/B
Epoch Orbit41721
Epoch Day261.92488805
Epoch Year2021
RAAN131.69
Inclination80.9638
Eccentricity0.0562574
Argument of Perigee225.5012
Mean Anonmoly129.8895
Mean Motion14.54211434
Decay Rate5.819E-05
L11 39271U 13055G 21261.92488805 .00005819 00000-0 13542-3 0 9993
L22 39271 80.9638 131.6900 0562574 225.5012 129.8895 14.54211434417210

Live tracking and technical data element details for CUSAT 2 & FALCON 9 R/B (NORAD 39271). CUSAT 2 & FALCON 9 R/B can be tracked NOW for your location showing map with azimuth and elevation plus other details from your city location.

Track the satellite on the map from your city or location and see movement details for azimuth, elevation, latitude, longitude, range, height, and movement on the map or in text.







IsCatalogInMostPopularTable: catalog: 39271, numindb: 810
Update: records affected: 1



GetName: 39271 CUSAT 2 & FALCON 9 R/B

Hit Count: updated at: Sat, 25 Sep 2021 23:43:56 GMT